Date,TemperatureHighF,TemperatureAvgF,TemperatureLowF,DewpointHighF,DewpointAvgF,DewpointLowF,HumidityHigh,HumidityAvg,HumidityLow,PressureMaxIn,PressureMinIn,WindSpeedMaxMPH,WindSpeedAvgMPH,GustSpeedMaxMPH,PrecipitationSumIn
2014-1-1,5.5,-0.9,-14.2,-0.6,-6.9,-18.6,82,75,67,30.56,30.46,7,0,7,0.00
2014-1-2,6.5,-0.9,-11.6,-2.0,-6.2,-16.6,94,78,64,30.51,30.44,10,1,11,0.00
2014-1-3,22.0,5.4,-15.6,16.7,-0.4,-20.3,83,77,63,30.44,29.58,23,4,23,0.00
2014-1-4,29.7,17.7,3.0,27.1,11.6,-5.2,90,77,64,30.19,29.49,24,6,24,0.00
2014-1-5,3.0,-7.1,-14.1,-4.9,-14.5,-21.2,77,69,58,30.37,30.19,15,5,15,0.00
2014-1-6,-12.2,-17.7,-22.8,-20.3,-24.6,-29.7,83,70,65,30.30,30.22,19,8,19,0.00
2014-1-7,-0.1,-9.8,-20.5,-8.5,-16.1,-25.4,80,73,64,30.33,30.21,10,3,10,0.00
2014-1-8,2.4,-6.5,-15.6,-6.7,-12.3,-20.9,83,75,64,30.57,30.33,10,2,10,0.00
2014-1-9,18.3,0.8,-17.3,15.1,-4.9,-22.5,92,77,59,30.54,30.05,14,2,14,0.00
2014-1-10,29.2,24.9,18.3,26.6,22.4,15.4,90,90,88,30.05,29.47,7,1,12,0.00
2014-1-11,31.2,29.2,27.3,28.1,26.4,24.0,92,89,85,29.65,29.44,16,4,16,0.00
2014-1-12,40.6,35.3,26.8,32.0,29.8,24.0,90,80,70,29.65,29.37,15,4,17,0.00
2014-1-13,33.7,29.2,21.2,30.4,23.8,16.4,89,80,67,29.65,29.45,23,5,23,0.00
2014-1-14,24.9,19.6,7.1,22.3,16.3,2.8,90,87,80,30.05,29.51,21,3,21,0.12
2014-1-15,16.1,6.0,-0.6,13.3,1.7,-4.1,89,82,76,30.12,29.50,16,4,16,0.23
2014-1-16,30.6,18.7,9.3,27.9,13.8,2.7,90,81,68,29.77,29.37,25,6,25,0.00
2014-1-17,15.4,9.4,0.4,7.5,4.3,-4.3,86,79,68,29.99,29.76,18,5,18,0.02
2014-1-18,22.9,11.8,1.0,13.5,6.5,-2.9,85,79,65,29.94,29.74,16,2,16,0.00
2014-1-19,36.4,25.7,16.0,28.6,21.4,12.3,90,84,73,29.75,29.43,16,4,16,0.00
2014-1-20,25.7,13.1,-3.4,21.5,6.2,-12.6,87,74,61,30.39,29.68,14,2,14,0.00
2014-1-21,0.6,-5.9,-15.4,-3.3,-12.9,-20.9,83,71,62,30.46,30.11,10,2,10,0.00
2014-1-22,4.6,1.0,-4.9,-0.3,-5.3,-11.2,85,75,58,30.42,29.97,24,6,25,0.00
2014-1-23,-1.7,-8.0,-12.2,-11.0,-14.5,-17.1,81,73,61,30.71,30.35,15,6,19,0.00
2014-1-24,29.1,14.1,-9.8,26.0,9.1,-14.1,90,80,67,30.35,29.45,21,7,21,0.00
2014-1-25,28.9,4.3,1.7,25.2,-7.2,-10.7,86,58,50,29.82,29.45,28,8,28,0.00
2014-1-26,14.1,5.3,-2.5,9.8,0.6,-10.0,86,81,68,29.98,29.38,33,6,33,0.00
2014-1-27,-2.6,-10.6,-16.0,-10.1,-18.8,-23.6,72,66,59,30.44,29.98,24,8,24,0.00
2014-1-28,-1.3,-9.6,-18.6,-10.5,-16.1,-23.5,80,73,63,30.42,30.14,18,5,18,0.00
2014-1-29,27.0,8.2,-8.1,16.6,-0.6,-13.0,81,68,52,30.15,29.64,15,4,15,0.00
2014-1-30,28.8,20.6,1.8,24.8,13.6,-5.2,92,75,63,30.00,29.51,21,4,21,0.00
2014-1-31,5.1,-2.4,-12.2,-4.5,-9.0,-17.5,83,73,63,30.21,30.00,13,3,13,0.00
2014-2-1,16.2,5.7,-4.9,7.5,-0.4,-10.6,83,76,66,30.20,30.01,13,1,13,0.38
2014-2-2,10.3,1.2,-6.8,4.0,-4.7,-10.6,95,76,63,30.34,30.20,12,2,12,0.00
2014-2-3,14.4,3.9,-7.3,7.1,-0.8,-11.3,87,80,71,30.41,30.26,11,2,11,0.00
2014-2-4,17.5,6.0,-6.1,6.7,-0.1,-10.5,87,76,62,30.50,30.40,13,2,13,0.00
2014-2-5,7.6,3.6,-2.3,1.7,-1.8,-6.3,92,78,70,30.51,30.43,13,3,13,0.00
2014-2-6,3.6,-3.9,-11.8,-4.2,-9.1,-16.1,92,78,66,30.47,30.28,17,4,17,0.00
2014-2-7,11.3,1.0,-7.1,-1.3,-5.7,-11.1,92,74,56,30.27,30.20,19,6,19,0.00
2014-2-8,13.7,5.3,-6.5,7.1,0.5,-10.8,95,80,67,30.25,30.15,9,1,9,0.00
2014-2-9,8.5,3.2,-5.8,4.9,-3.6,-11.3,87,73,58,30.39,30.18,18,4,18,0.00
2014-2-10,5.2,-4.3,-11.6,-5.3,-10.9,-16.1,92,73,60,30.54,30.39,14,3,14,0.00
2014-2-11,13.1,0.8,-18.0,3.3,-6.9,-22.8,83,70,56,30.55,30.19,18,3,19,0.00
2014-2-12,19.8,13.9,8.7,16.9,9.9,3.6,90,84,75,30.21,29.90,14,2,14,0.00
2014-2-13,25.8,17.9,11.6,22.4,14.4,8.2,96,86,78,29.91,29.42,19,4,19,0.00
2014-2-14,17.2,10.0,2.7,10.3,2.8,-2.4,85,73,58,30.05,29.68,19,4,19,0.00
2014-2-15,20.2,8.2,-3.7,14.7,3.5,-8.1,89,81,59,30.06,29.90,17,1,17,0.00
2014-2-16,22.2,14.7,3.7,13.9,7.7,0.2,88,74,58,30.27,30.03,12,2,12,0.07
2014-2-17,26.1,21.2,15.9,22.6,17.6,9.2,90,86,68,30.17,29.70,13,3,16,0.00
2014-2-18,38.2,27.4,17.1,28.8,22.4,14.4,90,82,65,29.82,29.56,13,2,13,0.21
2014-2-19,40.5,31.3,19.7,32.0,25.6,16.8,90,80,66,29.83,29.69,13,3,13,0.00
2014-2-20,37.6,34.6,32.4,34.1,29.8,24.6,90,83,71,29.77,29.00,12,1,12,0.00
2014-2-21,33.4,15.2,11.1,30.8,11.5,6.7,92,85,81,29.71,29.01,19,5,23,0.00
2014-2-22,16.1,10.2,5.7,9.2,4.8,1.3,83,78,72,30.09,29.71,22,8,22,0.91
2014-2-23,17.8,9.4,1.2,8.8,3.1,-3.2,82,75,66,30.22,30.10,23,8,23,0.00
2014-2-24,13.0,7.1,0.7,4.4,0.4,-3.9,82,74,65,30.31,30.22,17,7,17,0.00
2014-2-25,7.8,1.3,-5.2,3.3,-5.5,-11.0,84,73,61,30.31,30.23,20,7,20,0.00
2014-2-26,14.1,0.9,-12.3,10.4,-5.8,-17.9,86,73,57,30.31,29.61,27,10,29,0.00
2014-2-27,0.0,-7.3,-14.2,-8.2,-17.8,-22.2,76,60,48,30.22,29.86,25,4,25,0.00
2014-2-28,9.4,0.5,-16.1,5.3,-6.1,-23.5,86,74,58,30.20,30.01,12,1,12,0.00
2014-3-1,8.7,1.5,-4.1,3.3,-7.0,-17.2,79,67,51,30.52,30.18,17,6,17,0.08
2014-3-2,3.0,-5.6,-14.9,-12.0,-17.8,-25.1,72,55,46,30.60,30.51,15,4,15,0.00
2014-3-3,9.2,-0.2,-16.3,4.2,-8.3,-21.6,87,69,53,30.60,30.34,11,1,12,0.00
2014-3-4,20.0,12.8,7.8,9.3,6.0,4.0,86,75,59,30.34,30.23,7,0,7,0.00
2014-3-5,22.6,14.6,5.5,6.8,4.1,0.0,83,64,40,30.53,30.34,11,1,11,0.00
2014-3-6,30.1,18.1,4.9,20.2,11.0,-0.2,91,74,64,30.45,29.92,12,4,19,0.00
2014-3-7,34.0,29.3,22.6,29.0,24.5,17.1,88,82,78,30.14,29.81,14,3,14,0.00
2014-3-8,29.5,24.0,16.5,22.6,15.6,9.7,81,70,55,30.28,30.14,15,2,15,0.00
2014-3-9,42.2,29.8,14.9,33.0,23.1,10.0,85,76,63,30.19,29.65,21,6,21,0.00
2014-3-10,53.6,42.7,33.2,38.3,34.3,30.3,90,73,50,29.65,29.56,16,3,16,0.00
2014-3-11,43.9,39.9,33.6,33.7,28.1,20.8,77,63,43,29.90,29.63,16,4,16,0.00
2014-3-12,33.5,23.0,11.9,22.0,9.3,0.9,74,56,32,30.10,29.89,9,3,17,0.00
2014-3-13,44.2,29.5,11.3,33.4,21.5,3.8,86,72,62,30.07,29.53,16,3,16,0.00
2014-3-14,43.6,37.3,29.3,34.2,30.6,20.2,88,77,62,29.87,29.44,26,7,26,0.00
2014-3-15,33.3,25.9,15.2,21.2,14.2,2.6,79,62,43,30.44,29.87,15,2,15,0.00
2014-3-16,24.6,15.0,4.5,7.7,3.4,-1.4,77,60,44,30.52,30.11,10,1,10,0.00
2014-3-17,28.7,23.0,18.5,22.3,15.8,6.5,87,74,59,30.11,29.69,20,2,20,0.00
2014-3-18,38.2,32.0,25.5,32.8,25.8,19.0,96,78,69,29.79,29.72,10,1,10,0.10
2014-3-19,33.5,32.3,29.2,30.7,27.8,23.9,90,84,69,29.94,29.71,19,3,19,0.06
2014-3-20,40.7,32.9,23.4,31.1,25.9,20.0,88,76,65,30.02,29.93,9,2,11,0.00
2014-3-21,41.0,34.6,29.0,34.1,27.9,24.1,88,77,62,29.99,29.70,19,4,23,0.00
2014-3-22,32.5,18.6,10.9,28.2,10.0,2.8,85,69,54,30.48,29.99,23,8,25,0.00
2014-3-23,20.4,12.1,3.6,8.8,3.8,-1.2,81,69,56,30.53,30.39,14,4,18,0.00
2014-3-24,28.4,18.1,3.7,22.5,11.9,-0.2,87,77,59,30.40,30.07,19,4,19,0.00
2014-3-25,20.5,14.6,7.9,10.0,3.5,-2.0,70,61,51,30.25,30.07,22,7,22,0.00
2014-3-26,36.9,20.5,5.5,20.4,10.6,1.3,84,67,46,30.22,29.84,19,3,19,0.00
2014-3-27,38.1,35.5,31.2,35.1,32.6,27.6,90,89,85,29.62,29.46,17,2,17,0.00
2014-3-28,40.7,33.1,27.9,27.9,24.3,20.3,88,71,49,30.21,29.61,17,3,17,0.00
2014-3-29,43.7,34.5,23.0,29.1,24.9,17.6,81,68,54,30.28,30.13,10,1,10,0.00
2014-3-30,57.0,44.1,32.7,39.4,33.8,26.9,82,68,51,30.15,29.84,23,3,23,0.00
2014-3-31,52.9,46.2,41.0,43.2,38.2,35.6,84,74,61,29.85,29.35,29,2,30,0.00
2014-4-1,42.0,29.1,22.0,36.3,23.1,15.1,90,78,66,30.09,29.39,31,9,31,0.00
2014-4-2,44.6,32.6,17.4,26.3,21.6,14.5,89,66,42,30.23,30.09,8,0,8,2.58
2014-4-3,38.7,34.4,31.3,30.8,27.1,20.8,90,75,52,30.12,29.72,10,1,10,0.00
2014-4-4,36.1,31.8,28.4,32.8,28.7,24.9,96,88,79,30.00,29.59,18,1,21,1.13
2014-4-5,44.3,33.7,21.4,32.3,27.4,18.9,98,78,61,30.13,30.00,17,3,17,0.00
2014-4-6,57.7,47.1,37.3,44.8,37.1,30.5,84,69,57,30.01,29.78,17,4,17,0.00
2014-4-7,54.4,45.6,36.9,45.7,40.4,33.8,91,82,64,29.82,29.67,15,2,15,0.00
2014-4-8,50.1,41.2,33.7,35.0,31.3,27.5,89,69,49,29.95,29.71,21,5,22,0.00
2014-4-9,63.4,49.4,29.0,42.2,34.3,25.3,86,58,40,29.94,29.46,27,6,27,0.00
2014-4-10,58.2,51.8,44.4,44.1,31.2,17.5,77,48,21,29.88,29.45,31,8,31,0.00
2014-4-11,59.8,47.2,35.9,44.0,32.9,26.1,88,59,38,29.97,29.87,13,1,13,0.03
2014-4-12,49.0,45.1,42.5,42.5,38.9,33.3,92,79,55,29.94,29.69,13,2,13,0.22
2014-4-13,46.2,41.2,32.6,41.2,37.4,30.0,95,86,77,29.82,29.70,18,2,18,0.07
2014-4-14,35.2,30.6,24.7,30.0,19.5,10.0,90,65,40,30.06,29.76,22,4,22,0.02
2014-4-15,35.9,27.6,20.2,17.3,13.5,9.2,79,57,34,30.14,30.05,17,3,17,0.00
2014-4-16,41.2,33.2,27.3,35.3,27.6,14.9,92,80,56,30.15,29.93,13,2,13,0.19
2014-4-17,38.2,35.6,29.2,34.9,31.4,25.3,90,85,74,30.32,29.95,17,3,17,0.13
2014-4-18,53.4,38.8,24.9,33.2,27.1,22.3,90,66,34,30.41,30.27,8,1,8,0.00
2014-4-19,64.0,49.6,35.9,48.2,35.9,25.9,81,60,41,30.30,29.99,24,5,24,0.03
2014-4-20,69.6,59.5,50.1,56.2,51.5,44.3,89,76,58,30.01,29.89,15,2,15,0.02
2014-4-21,71.8,57.9,43.1,56.9,44.2,30.8,89,65,28,29.95,29.76,26,5,27,0.00
2014-4-22,56.8,44.5,33.1,32.5,28.5,25.8,81,56,31,30.09,29.95,25,4,25,0.00
2014-4-23,51.4,43.1,32.6,39.4,30.8,26.8,94,64,41,30.13,29.96,10,1,10,0.21
2014-4-24,43.7,41.0,36.9,40.7,38.2,34.2,95,90,89,30.00,29.64,12,3,13,0.92
2014-4-25,54.8,45.7,37.7,45.0,39.0,33.1,91,78,55,29.89,29.67,25,5,25,0.00
2014-4-26,57.2,44.5,31.7,37.5,33.1,28.6,89,66,43,30.05,29.89,11,2,11,0.02
2014-4-27,43.3,39.3,35.8,37.5,34.8,31.3,90,84,73,30.01,29.76,21,5,21,0.95
2014-4-28,45.1,42.7,40.0,40.2,37.2,34.0,90,81,65,29.83,29.68,25,5,25,0.66
2014-4-29,42.6,38.7,36.5,38.1,35.9,33.8,92,90,77,29.71,29.59,12,2,12,0.72
2014-4-30,44.7,40.7,36.1,41.9,37.9,33.5,91,90,89,29.68,29.63,10,2,10,0.30
2014-5-1,47.2,43.2,39.6,43.7,39.9,36.6,91,88,84,29.77,29.60,19,3,19,0.06
2014-5-2,50.4,45.8,42.5,45.1,41.6,38.8,92,85,72,29.76,29.60,16,2,16,0.06
2014-5-3,57.8,49.6,40.0,42.6,36.9,31.9,91,64,41,29.87,29.62,22,7,22,0.01
2014-5-4,60.4,48.3,35.5,36.3,30.5,25.1,79,53,29,30.07,29.87,14,3,14,0.00
2014-5-5,62.9,52.5,44.7,42.4,37.5,33.1,73,57,42,30.02,29.91,11,2,12,0.00
2014-5-6,62.4,52.6,42.0,43.1,39.1,36.5,84,61,46,30.00,29.83,17,3,17,0.00
2014-5-7,61.7,53.1,48.2,51.5,44.6,35.6,85,73,59,29.86,29.65,32,4,32,0.01
2014-5-8,73.0,60.3,50.9,62.9,55.0,47.3,89,83,61,29.79,29.50,19,2,19,0.28
2014-5-9,64.5,54.1,44.7,61.2,49.9,41.1,89,85,78,29.73,29.42,27,8,27,0.00
2014-5-10,70.2,55.5,41.1,51.8,42.3,33.6,90,65,27,29.88,29.73,18,3,18,0.01
2014-5-11,72.4,63.2,52.4,59.2,53.9,48.3,88,73,52,29.85,29.73,11,1,11,0.17
2014-5-12,74.1,65.5,51.5,64.7,60.6,48.7,90,85,69,29.79,29.57,18,3,18,1.02
2014-5-13,53.2,49.0,44.5,48.6,42.6,38.6,94,79,62,30.11,29.65,22,8,22,0.02
2014-5-14,58.2,49.2,38.6,39.1,34.3,28.8,88,59,37,30.20,30.07,20,3,20,0.00
2014-5-15,52.0,45.7,39.5,35.0,31.3,27.3,72,58,44,30.10,30.01,15,2,15,0.00
2014-5-16,52.6,44.0,32.6,36.2,30.1,25.4,89,61,36,30.07,29.98,17,3,17,0.00
2014-5-17,62.9,51.5,35.8,38.9,32.5,29.4,82,51,31,30.01,29.94,17,4,20,0.00
2014-5-18,71.5,60.8,48.4,44.4,37.7,30.9,63,43,30,30.04,29.97,22,5,22,0.00
2014-5-19,60.6,54.4,50.8,50.6,45.8,38.6,92,74,48,30.02,29.78,21,4,21,1.91
2014-5-20,76.6,62.7,50.0,62.7,56.1,46.8,90,80,53,29.81,29.74,13,2,13,0.01
2014-5-21,64.5,60.3,54.6,59.4,51.8,46.4,89,74,61,30.01,29.75,21,5,21,0.00
2014-5-22,69.5,57.8,45.6,51.6,46.5,42.1,88,68,45,30.14,30.01,19,3,19,0.00
2014-5-23,74.5,61.2,44.2,52.0,46.5,41.4,90,62,36,30.21,30.09,11,1,11,0.00
2014-5-24,78.0,66.4,51.2,53.9,49.7,46.8,88,58,35,30.14,30.01,16,2,17,0.00
2014-5-25,81.2,68.6,52.0,59.7,52.9,46.1,83,59,38,30.02,29.86,17,2,17,0.00
2014-5-26,83.5,73.4,63.0,70.1,64.6,58.8,87,75,58,29.87,29.75,17,2,17,0.00
2014-5-27,73.3,67.2,61.5,68.3,63.1,55.3,89,87,80,29.92,29.77,7,0,8,0.11
2014-5-28,83.0,69.1,58.7,57.4,51.7,38.1,88,59,21,30.03,29.90,8,0,8,0.00
2014-5-29,84.3,68.5,51.5,62.3,53.1,45.3,89,62,27,30.11,30.00,11,0,11,0.00
2014-5-30,86.1,71.7,54.6,63.5,56.1,51.0,89,61,32,30.11,29.99,11,0,11,0.00
2014-5-31,86.8,73.3,60.7,65.8,58.0,51.1,87,62,30,30.04,29.86,18,1,19,0.08
2014-6-1,75.2,68.9,64.7,68.7,64.5,60.7,89,86,76,29.87,29.67,15,2,15,0.77
2014-6-2,79.8,69.8,63.0,68.1,62.4,54.1,90,78,56,29.70,29.54,29,6,29,0.29
2014-6-3,74.2,65.1,54.8,59.2,54.3,49.6,84,69,50,29.86,29.66,21,6,21,0.00
2014-6-4,80.9,67.4,53.4,61.2,56.4,50.2,90,70,43,29.84,29.78,8,0,8,0.00
2014-6-5,77.0,66.1,55.0,62.2,56.8,51.9,92,74,47,29.88,29.78,17,3,17,0.01
2014-6-6,81.6,69.3,59.0,66.5,60.7,55.5,90,76,48,29.89,29.82,12,1,12,0.47
2014-6-7,63.6,58.2,53.0,60.2,55.0,50.1,92,89,86,29.99,29.82,15,0,15,0.35
2014-6-8,73.1,59.4,47.2,57.4,50.1,44.1,90,74,40,30.08,29.99,9,0,9,0.01
2014-6-9,73.5,62.0,53.2,59.0,53.7,50.0,92,76,52,30.01,29.92,7,0,7,0.00
2014-6-10,75.8,64.0,51.9,58.0,53.3,48.8,92,71,43,29.94,29.81,7,0,7,0.00
2014-6-11,80.5,66.7,50.8,62.0,55.7,47.8,90,70,43,29.83,29.63,11,0,11,0.00
2014-6-12,67.4,60.8,55.0,60.5,52.2,39.6,88,74,57,29.85,29.56,25,7,25,0.02
2014-6-13,73.7,59.7,46.4,54.0,46.5,39.7,88,64,38,29.98,29.85,15,3,15,0.00
2014-6-14,71.1,60.5,51.9,56.1,52.0,46.9,89,75,49,29.95,29.75,13,1,13,0.15
2014-6-15,76.0,65.0,54.7,65.6,57.7,51.4,90,78,58,29.92,29.49,27,4,27,1.68
2014-6-16,83.2,70.7,61.3,67.7,60.8,56.1,89,73,45,29.86,29.55,19,3,19,0.50
2014-6-17,83.3,71.7,60.0,69.6,63.6,56.7,90,77,60,29.80,29.55,11,1,12,0.00
2014-6-18,79.0,70.7,66.1,70.4,65.9,62.2,89,85,71,29.94,29.72,18,0,20,1.05
2014-6-19,72.4,68.5,64.3,66.9,64.1,60.6,89,86,81,30.04,29.87,13,1,13,0.00
2014-6-20,83.2,71.6,63.4,72.1,65.2,59.9,90,81,57,29.91,29.78,6,0,7,0.01
2014-6-21,82.0,73.1,62.4,68.8,63.7,58.3,89,74,45,29.82,29.77,13,1,13,0.00
2014-6-22,77.5,67.7,59.1,70.2,62.9,55.9,90,85,69,29.83,29.74,16,0,16,0.37
2014-6-23,79.8,71.3,65.3,69.4,65.5,61.6,90,83,65,29.78,29.72,11,1,11,0.01
2014-6-24,82.4,70.2,59.8,68.0,63.2,55.8,90,79,51,29.88,29.77,9,1,15,0.00
2014-6-25,77.5,64.3,55.9,68.1,59.7,52.7,90,85,65,29.98,29.88,11,0,13,0.38
2014-6-26,78.2,67.7,58.8,69.5,62.4,55.4,90,83,70,30.00,29.87,8,0,8,0.00
2014-6-27,80.5,70.2,65.4,73.8,66.4,61.9,90,88,78,29.89,29.74,12,0,12,0.28
2014-6-28,82.7,75.3,66.9,74.4,69.9,63.4,90,83,73,29.79,29.62,22,2,22,0.93
2014-6-29,81.2,72.7,66.1,68.8,65.5,62.8,90,79,61,29.69,29.60,24,6,26,0.03
2014-6-30,80.6,70.2,64.3,69.9,65.0,59.4,90,84,65,29.63,29.42,23,4,23,0.07
2014-7-1,73.8,65.4,58.9,66.4,60.4,55.4,92,84,70,29.68,29.41,19,6,19,0.59
2014-7-2,72.8,61.9,53.0,57.8,53.2,47.6,90,75,44,30.02,29.68,12,1,12,0.00
2014-7-3,76.1,63.0,49.5,59.3,53.1,46.7,90,73,44,30.16,30.02,13,1,13,0.00
2014-7-4,77.8,66.5,52.1,59.2,55.3,49.3,90,69,44,30.24,30.09,16,1,16,0.00
2014-7-5,78.8,70.3,61.2,67.7,61.6,55.3,84,74,65,30.09,29.83,19,3,20,0.00
2014-7-6,83.6,73.1,66.8,76.3,67.8,62.6,89,84,69,29.86,29.53,21,4,21,0.18
2014-7-7,82.2,70.3,63.4,68.7,63.7,59.2,89,80,60,29.65,29.50,17,3,18,0.33
2014-7-8,72.4,65.3,60.8,63.1,60.1,57.5,90,84,67,29.79,29.53,21,3,21,0.12
2014-7-9,75.5,64.3,54.7,61.3,56.2,51.8,92,76,55,29.97,29.78,13,1,13,0.00
2014-7-10,80.8,68.4,54.5,67.7,60.3,51.6,90,77,55,30.04,29.94,12,1,12,0.00
2014-7-11,74.9,69.6,63.9,67.5,64.2,60.6,90,83,73,29.99,29.91,23,2,23,0.02
2014-7-12,75.7,69.0,64.5,71.8,65.5,61.1,90,89,78,29.95,29.81,29,1,29,0.29
2014-7-13,74.0,66.3,59.1,61.7,56.6,52.1,90,73,48,29.88,29.77,16,3,16,0.02
2014-7-14,63.4,58.2,53.6,55.5,52.9,50.5,92,83,67,29.91,29.77,23,3,23,0.16
2014-7-15,70.8,60.2,53.9,57.7,53.7,50.7,90,80,55,29.97,29.90,16,1,16,0.00
2014-7-16,74.4,61.9,47.9,58.4,51.7,45.1,92,72,44,30.01,29.94,9,0,9,0.00
2014-7-17,76.8,65.1,51.4,61.0,56.1,48.6,92,74,51,30.02,29.96,13,2,13,0.00
2014-7-18,77.8,67.7,56.2,63.5,59.0,53.3,90,75,53,30.03,29.92,19,2,19,0.00
2014-7-19,77.6,70.9,64.7,66.4,62.9,59.6,84,76,62,29.93,29.84,19,3,19,0.00
2014-7-20,81.6,74.2,67.2,70.8,66.2,61.7,84,77,67,29.85,29.78,18,2,18,0.00
2014-7-21,86.5,78.2,70.8,77.2,70.9,66.1,86,79,70,29.87,29.78,15,1,15,0.00
2014-7-22,81.0,76.7,64.0,75.8,69.1,60.4,88,78,62,30.03,29.70,19,3,19,0.00
2014-7-23,79.1,68.0,58.7,65.3,59.9,55.5,90,77,52,30.16,30.04,8,0,8,0.00
2014-7-24,78.0,66.6,55.1,62.3,57.3,52.2,92,74,47,30.11,29.87,8,1,12,0.00
2014-7-25,72.5,67.9,64.1,67.8,63.4,59.8,89,86,83,29.90,29.70,16,1,16,0.00
2014-7-26,84.5,75.3,66.8,71.3,67.4,63.0,90,78,57,29.75,29.66,14,3,14,0.01
2014-7-27,72.7,65.7,55.4,64.6,59.7,52.2,92,81,70,30.03,29.63,13,2,19,0.03
2014-7-28,74.2,64.4,54.4,60.5,55.7,51.4,92,75,55,30.11,30.02,14,1,14,0.00
2014-7-29,77.3,63.5,55.8,64.4,57.9,52.9,92,83,58,30.02,29.93,20,2,26,0.26
2014-7-30,77.3,63.2,52.5,65.2,57.8,49.4,92,83,58,30.03,29.93,10,1,11,0.04
2014-7-31,80.0,66.8,57.3,67.6,60.9,54.2,92,82,58,29.95,29.89,19,2,19,0.19
2014-8-1,80.4,68.9,59.1,71.1,63.1,56.2,90,83,63,30.01,29.92,8,0,9,0.02
2014-8-2,84.5,70.7,59.2,69.2,63.2,56.1,90,79,53,30.07,29.98,9,1,9,0.05
2014-8-3,84.3,71.1,62.9,70.2,64.3,59.6,90,80,52,30.04,29.95,15,1,15,0.01
2014-8-4,80.8,68.1,61.4,71.2,63.4,58.1,90,85,67,30.01,29.93,17,0,17,0.55
2014-8-5,78.5,68.4,60.5,68.4,63.0,57.2,90,83,66,30.06,29.98,6,0,6,0.00
2014-8-6,81.8,68.8,56.6,67.9,60.9,53.5,92,78,52,30.03,29.97,7,0,7,0.01
2014-8-7,81.6,69.0,58.1,68.0,62.3,54.9,92,80,54,30.04,29.95,10,0,10,0.00
2014-8-8,81.3,69.1,57.7,66.6,60.4,54.8,92,76,52,30.07,29.99,9,0,9,0.00
2014-8-9,81.5,70.1,59.6,65.7,61.3,56.7,92,76,50,30.09,30.00,9,0,9,0.00
2014-8-10,82.3,69.4,59.3,63.3,59.8,54.5,92,74,41,30.03,29.90,8,0,8,0.00
2014-8-11,74.2,65.1,59.7,64.7,60.7,56.8,90,86,64,29.94,29.81,11,0,11,1.06
2014-8-12,76.1,64.7,54.2,59.3,56.2,51.3,91,76,50,29.95,29.89,15,1,15,0.01
2014-8-13,77.3,67.5,55.2,65.2,58.9,52.0,92,75,49,30.04,29.90,13,0,13,0.00
2014-8-14,74.7,59.4,47.6,58.8,51.7,44.9,91,78,49,30.12,29.97,5,0,6,0.00
2014-8-15,81.9,67.5,53.9,69.1,60.4,50.6,90,79,62,29.99,29.79,13,1,13,0.00
2014-8-16,83.4,70.8,64.7,72.8,66.1,61.3,90,86,67,29.87,29.74,13,2,13,0.39
2014-8-17,71.9,66.9,64.1,66.5,63.1,60.9,90,88,80,29.95,29.81,5,0,5,0.01
2014-8-18,79.2,69.1,63.4,72.6,65.3,60.3,90,88,76,29.82,29.57,12,0,12,1.05
2014-8-19,74.8,67.5,63.4,67.4,63.5,60.1,90,87,75,29.71,29.55,12,2,12,0.05
2014-8-20,78.5,67.1,59.2,68.1,62.0,56.0,90,84,65,29.85,29.71,8,0,8,0.01
2014-8-21,77.7,70.0,62.6,71.8,66.3,59.3,90,88,81,29.85,29.75,8,0,8,0.34
2014-8-22,85.0,75.6,70.4,75.6,70.9,67.0,90,85,71,29.92,29.75,19,1,19,0.00
2014-8-23,78.7,72.4,67.8,73.9,68.7,64.0,90,88,84,29.93,29.86,5,0,5,0.00
2014-8-24,84.5,75.8,70.5,77.1,71.5,67.2,90,87,77,29.88,29.74,27,1,27,0.01
2014-8-25,84.2,74.1,64.3,74.7,67.2,59.0,90,80,57,29.94,29.77,24,3,24,0.48
2014-8-26,72.1,63.0,55.6,60.3,56.2,52.4,90,79,58,30.12,29.94,14,2,14,0.00
2014-8-27,75.5,64.1,57.0,61.5,57.3,53.9,92,80,58,30.17,30.06,9,0,9,0.03
2014-8-28,72.5,62.3,51.0,65.9,57.8,48.2,91,86,71,30.09,29.90,4,0,7,0.07
2014-8-29,79.1,66.5,58.7,72.7,62.9,55.6,90,88,80,29.90,29.67,13,0,13,1.03
2014-8-30,68.7,65.9,59.2,65.4,62.5,56.1,92,89,87,29.84,29.66,7,0,7,0.17
2014-8-31,80.8,68.2,55.9,72.2,63.4,52.6,92,85,74,29.86,29.58,17,1,17,0.30
2014-9-1,67.6,66.6,65.7,64.5,63.3,62.3,90,89,88,29.64,29.53,17,2,17,0.48
2014-9-2,71.0,64.7,60.0,60.1,57.9,56.1,87,79,65,29.82,29.79,3,0,3,0.01
2014-9-3,72.6,65.0,58.2,67.7,61.2,55.3,92,88,81,29.87,29.63,20,0,28,1.72
2014-9-4,74.7,70.4,64.6,71.6,66.9,60.9,90,89,88,29.74,29.58,17,1,28,0.31
2014-9-5,73.2,60.6,53.6,70.1,56.2,50.9,91,85,76,30.09,29.72,16,3,19,0.00
2014-9-6,73.0,60.4,49.2,58.6,52.7,46.6,91,78,46,30.12,30.07,12,2,14,0.01
2014-9-7,75.5,63.9,53.1,59.6,54.8,50.4,91,74,47,30.10,29.99,17,2,20,0.03
2014-9-8,69.0,62.2,56.2,60.3,56.5,53.0,89,82,71,29.99,29.82,12,0,16,0.00
2014-9-9,77.8,67.7,60.0,70.1,63.0,57.1,90,85,72,29.85,29.67,10,0,14,0.00
2014-9-10,67.8,54.2,44.9,64.7,50.7,41.0,91,88,82,30.01,29.54,17,1,18,1.31
2014-9-11,55.4,47.3,39.7,45.1,41.3,37.3,91,80,61,30.33,30.00,6,0,13,0.00
2014-9-12,49.7,43.7,38.8,45.1,40.4,36.4,95,88,74,30.40,30.31,15,0,16,0.17
2014-9-13,57.5,45.4,33.9,44.4,38.7,31.4,91,79,52,30.34,30.18,12,1,14,0.01
2014-9-14,64.4,54.4,46.3,52.4,45.7,42.0,87,74,49,30.18,30.02,18,3,18,0.00
2014-9-15,62.4,51.9,42.7,49.7,45.0,40.0,91,79,50,30.16,30.07,13,1,14,0.00
2014-9-16,66.8,51.9,37.9,50.6,43.5,35.5,91,75,47,30.16,29.98,14,2,14,0.00
2014-9-17,73.3,56.6,43.7,59.9,50.1,41.0,91,80,55,30.01,29.90,8,0,10,0.00
2014-9-18,62.1,52.7,47.0,56.0,49.3,44.2,91,88,79,30.11,30.01,5,0,6,0.00
2014-9-19,72.1,62.0,51.8,63.5,56.3,48.8,91,82,69,30.02,29.62,21,2,23,0.07
2014-9-20,74.5,66.6,56.2,64.9,60.8,52.7,92,82,61,29.69,29.58,20,5,23,0.16
2014-9-21,64.7,55.8,45.5,52.7,49.1,42.7,91,80,54,30.15,29.65,22,3,22,0.04
2014-9-22,69.2,54.9,42.0,57.1,49.0,39.3,91,82,60,30.21,30.11,14,2,16,0.01
2014-9-23,73.3,59.1,46.5,57.4,51.7,43.7,91,78,52,30.23,30.14,12,1,15,0.00
2014-9-24,64.8,58.3,53.9,56.1,53.6,50.6,90,84,71,30.19,30.14,11,0,12,0.04
2014-9-25,75.8,63.2,56.7,61.0,56.1,53.4,90,79,54,30.20,30.13,9,0,12,0.00
2014-9-26,78.1,64.1,51.8,59.6,55.1,49.0,91,75,48,30.18,30.10,13,0,13,0.01
2014-9-27,80.4,67.0,56.6,66.3,59.7,53.4,90,78,57,30.15,30.05,7,0,11,0.00
2014-9-28,80.2,67.5,56.3,65.2,59.9,53.4,92,78,53,30.09,29.94,11,1,12,0.00
2014-9-29,61.9,53.9,44.1,58.7,48.7,40.0,92,83,65,30.08,29.92,10,0,11,0.01
2014-9-30,57.9,47.2,41.3,48.4,42.4,38.1,92,84,67,30.10,29.93,7,0,7,0.00
2014-10-1,56.0,51.0,46.6,52.8,47.9,43.3,94,89,88,29.95,29.77,7,0,8,0.53
2014-10-2,65.0,58.2,53.5,60.5,54.8,50.6,90,89,82,29.80,29.60,11,0,13,0.27
2014-10-3,53.4,45.3,36.1,50.5,42.1,33.6,92,89,82,29.70,29.56,27,8,28,0.11
2014-10-4,50.2,41.9,33.9,41.1,35.6,31.5,91,79,60,29.67,29.57,22,7,25,0.28
2014-10-5,50.4,40.4,31.8,37.3,33.7,29.2,96,78,56,29.62,29.51,20,3,20,0.10
2014-10-6,55.2,45.3,34.4,43.9,36.8,31.0,91,74,43,29.51,29.38,19,4,21,0.00
2014-10-7,58.9,49.1,39.3,43.4,39.4,34.3,91,71,45,29.78,29.39,25,4,25,0.00
2014-10-8,54.2,43.2,33.9,37.8,33.6,31.1,91,71,47,30.02,29.78,24,4,24,0.00
2014-10-9,54.2,41.1,30.9,41.1,34.4,27.8,90,78,58,30.18,30.02,14,2,18,0.00
2014-10-10,54.7,42.0,31.2,40.8,34.6,28.8,91,77,53,30.24,30.15,10,1,13,0.00
2014-10-11,55.7,41.6,28.1,38.0,32.5,25.8,91,72,47,30.26,30.02,11,1,11,0.01
2014-10-12,59.6,48.6,37.7,45.6,38.4,33.6,86,69,45,30.02,29.80,18,1,18,0.01
2014-10-13,52.6,51.8,50.7,49.4,47.9,45.1,90,86,77,29.80,29.65,6,0,6,0.31
2014-10-14,59.1,51.9,48.3,48.7,45.3,39.5,91,79,58,29.88,29.64,17,1,17,0.29
2014-10-15,67.1,53.0,42.7,44.6,40.6,37.9,83,65,36,29.92,29.83,13,1,13,0.00
2014-10-16,67.7,51.8,37.3,48.1,42.7,34.7,91,73,44,29.83,29.47,11,1,11,0.00
2014-10-17,55.3,51.6,48.0,49.5,46.4,42.2,90,82,72,29.95,29.46,20,4,20,0.00
2014-10-18,53.7,44.9,36.8,42.3,35.9,31.5,87,72,45,30.17,29.95,13,1,13,0.00
2014-10-19,61.9,46.8,33.2,49.2,40.7,30.1,90,80,62,30.08,29.72,21,3,21,0.10
2014-10-20,57.8,49.6,41.2,46.2,42.6,37.6,90,77,58,30.04,29.74,16,2,16,0.00
2014-10-21,55.7,45.2,35.5,41.9,38.4,32.9,95,78,58,30.22,30.04,11,0,11,0.00
2014-10-22,59.2,46.3,36.0,41.2,37.1,33.1,90,73,43,30.27,30.09,13,2,13,0.00
2014-10-23,51.8,51.3,50.3,49.5,48.2,47.2,92,89,89,29.98,29.95,7,1,7,0.15
2014-10-24,59.7,53.6,49.1,54.5,50.0,46.0,92,88,76,29.97,29.79,13,2,13,0.01
2014-10-25,62.7,53.8,45.6,51.6,37.0,25.6,91,57,26,29.97,29.79,24,6,24,0.00
2014-10-26,62.9,49.4,33.1,37.7,32.2,28.3,85,54,31,29.98,29.66,9,1,9,0.00
2014-10-27,68.1,57.3,48.0,50.8,43.7,33.6,78,61,44,29.65,29.46,20,1,20,0.00
2014-10-28,52.9,44.1,38.5,46.8,37.6,33.1,85,78,70,29.86,29.56,26,10,26,0.00
2014-10-29,44.2,40.0,35.1,36.0,34.1,31.6,90,79,71,30.10,29.86,19,4,19,0.00
2014-10-30,47.2,39.2,32.3,38.4,33.5,20.0,91,81,56,30.22,30.04,26,3,26,0.00
2014-10-31,40.6,32.8,25.3,24.8,22.6,20.3,82,67,48,30.49,30.23,24,3,24,0.00
2014-11-1,43.2,31.1,20.5,26.2,22.2,17.8,90,71,46,30.50,30.26,13,1,13,0.00
2014-11-2,55.9,42.2,31.1,29.7,26.7,23.6,81,56,34,30.26,29.94,21,3,21,0.00
2014-11-3,50.2,45.2,38.5,46.0,36.7,26.8,90,73,54,29.94,29.69,15,2,15,0.19
2014-11-4,51.4,44.6,38.7,46.1,35.8,27.5,90,72,49,29.95,29.68,29,9,29,0.04
2014-11-5,39.3,36.8,31.8,36.6,32.6,26.8,90,85,65,30.02,29.89,10,1,10,0.25
2014-11-6,40.5,35.9,31.9,33.1,31.1,28.2,91,83,67,30.23,29.92,13,2,13,0.03
2014-11-7,39.4,34.4,27.7,36.6,30.2,25.2,92,85,72,30.20,29.65,15,2,15,0.08
2014-11-8,40.2,37.0,33.5,37.4,28.4,22.5,90,72,52,29.93,29.67,29,8,29,0.01
2014-11-9,37.5,33.6,28.7,33.1,26.1,16.5,91,75,46,29.83,29.69,16,2,16,0.04
2014-11-10,31.5,29.9,28.3,28.9,25.9,20.1,91,85,66,29.84,29.57,11,2,11,0.00
2014-11-11,31.6,26.0,16.0,29.1,22.6,11.4,92,87,80,30.19,29.74,17,5,18,0.00
2014-11-12,24.9,19.9,12.8,19.8,16.0,9.9,88,85,78,30.30,30.19,14,4,14,0.00
2014-11-13,24.9,21.3,16.3,19.7,17.1,13.6,90,84,75,30.34,30.29,14,5,18,0.00
2014-11-14,23.3,17.2,10.8,15.9,12.2,7.5,88,80,67,30.39,30.32,10,3,13,0.00
2014-11-15,19.6,13.8,4.6,16.9,10.8,1.3,92,87,81,30.37,30.14,10,1,10,0.00
2014-11-16,22.0,17.6,9.5,19.1,12.8,5.2,90,81,66,30.14,29.84,21,6,21,0.00
2014-11-17,13.9,11.2,5.8,10.2,5.4,1.4,86,77,67,29.93,29.83,23,7,23,0.00
2014-11-18,15.6,12.4,8.2,10.4,5.9,2.8,84,75,60,30.02,29.85,19,6,20,0.00
2014-11-19,23.2,18.9,14.8,16.7,14.2,10.6,89,82,64,29.91,29.73,25,6,25,0.00
2014-11-20,18.0,11.6,3.3,14.7,4.0,-1.9,87,71,58,30.31,29.91,22,6,22,0.00
2014-11-21,31.4,16.2,1.3,26.7,8.8,-2.4,86,73,57,30.35,29.96,20,4,20,0.00
2014-11-22,39.3,35.8,31.5,36.3,32.8,26.8,90,89,83,29.95,29.58,18,5,18,0.00
2014-11-23,49.6,46.0,38.6,46.8,43.0,35.6,94,89,89,29.58,29.16,16,2,16,0.00
2014-11-24,38.6,29.7,21.2,35.6,26.8,17.2,91,89,84,29.81,29.13,25,8,25,0.00
2014-11-25,22.3,19.5,15.8,18.7,15.0,11.6,86,82,76,30.13,29.81,18,3,19,0.00
2014-11-26,26.5,23.2,17.1,22.6,19.1,13.1,92,84,78,30.34,30.11,11,1,11,0.00
2014-11-27,17.1,6.3,-1.1,13.1,0.7,-4.8,94,78,60,30.50,30.34,13,3,14,1.09
2014-11-28,22.0,16.1,8.2,18.6,12.2,2.3,89,84,74,30.38,29.78,9,1,9,0.00
2014-11-29,35.5,28.9,20.8,32.5,26.3,18.1,91,90,88,29.79,29.44,11,1,11,0.00
2014-11-30,30.0,16.9,6.1,27.5,9.1,-1.5,91,71,58,30.44,29.57,21,6,22,0.00
2014-12-1,8.8,3.6,-0.1,-1.2,-6.1,-9.0,74,64,47,30.79,30.44,15,3,15,0.00
2014-12-2,22.9,15.1,2.1,18.2,9.7,-4.8,90,79,63,30.56,29.98,18,4,18,0.00
2014-12-3,22.2,16.0,9.8,14.3,9.6,4.7,92,76,60,30.39,29.98,18,4,18,0.00
2014-12-4,28.9,20.2,8.5,14.6,10.4,4.2,92,67,46,30.41,30.19,13,1,14,0.00
2014-12-5,33.0,28.6,23.4,29.1,24.3,14.6,90,84,68,30.39,30.15,9,1,9,0.00
2014-12-6,34.2,24.2,13.8,23.1,18.4,10.9,91,79,57,30.67,30.39,4,0,4,0.00
2014-12-7,34.7,29.1,23.8,28.3,22.5,16.1,89,76,62,30.62,30.08,17,4,17,0.00
2014-12-8,35.2,31.3,25.1,32.3,28.1,21.2,92,88,83,30.25,29.93,18,5,18,0.00
2014-12-9,30.3,27.0,24.8,25.6,23.4,21.1,92,86,81,30.48,30.25,11,1,11,0.00
2014-12-10,25.6,24.3,22.2,22.5,21.4,19.6,90,89,87,30.45,30.29,7,1,9,0.00
2014-12-11,28.0,25.0,22.2,25.4,22.5,19.7,91,90,89,30.31,30.23,10,3,10,0.00
2014-12-12,34.0,32.3,28.0,32.8,29.5,25.4,96,89,89,30.25,30.13,9,3,15,0.00
2014-12-13,43.1,39.3,33.8,41.2,36.7,30.9,98,90,89,30.13,29.94,9,2,12,0.00
2014-12-14,46.9,45.1,41.6,46.4,44.6,41.1,99,98,98,29.95,29.82,5,0,5,0.00
2014-12-15,47.9,45.8,40.3,47.3,45.3,39.8,98,98,98,29.82,29.66,7,0,7,0.00
2014-12-16,40.2,28.0,21.6,39.7,27.1,19.5,100,96,92,30.20,29.68,18,6,24,0.00
2014-12-17,21.5,19.1,17.7,19.5,16.6,14.7,94,90,81,30.34,30.20,14,4,14,0.00
2014-12-18,24.3,23.1,20.4,23.4,22.2,18.8,99,96,94,30.34,30.28,5,0,6,0.00
2014-12-19,26.8,25.3,23.6,26.7,24.1,22.9,100,95,91,30.31,30.22,9,1,9,0.00
2014-12-20,31.9,29.4,26.6,30.1,27.6,24.6,95,93,91,30.23,30.12,11,1,11,0.00
2014-12-21,37.9,33.8,30.7,36.0,32.0,29.2,94,93,92,30.12,29.79,14,3,14,0.00
2014-12-22,37.7,35.9,34.1,35.9,34.0,32.3,94,93,92,29.80,29.64,13,2,16,0.00
2014-12-23,35.7,34.6,34.0,34.0,32.8,32.2,94,93,92,29.78,29.59,12,1,12,0.00
2014-12-24,36.2,34.5,33.5,34.7,32.4,30.6,95,92,87,29.78,29.55,13,2,13,0.00
2014-12-25,33.7,32.4,30.7,31.9,30.3,28.4,94,92,90,29.88,29.57,16,4,17,0.00
2014-12-26,34.4,32.5,30.0,32.3,30.7,28.5,94,93,90,30.05,29.86,7,0,7,0.00
2014-12-27,30.9,24.5,12.0,29.4,22.4,9.0,94,92,85,30.11,29.88,15,3,17,0.00
2014-12-28,22.6,12.7,2.4,18.9,9.7,-1.0,95,88,78,30.40,30.09,8,1,9,0.00
2014-12-29,8.2,1.4,-6.8,2.4,-3.3,-12.0,90,80,66,30.72,30.40,12,1,12,0.00
2014-12-30,4.6,-3.2,-10.5,-3.6,-8.8,-14.6,84,77,66,30.81,30.64,13,3,13,0.00
2014-12-31,14.1,2.2,-9.0,6.4,-2.8,-12.5,85,79,67,30.64,29.99,26,7,26,0.00
2015-1-1,26.5,18.5,9.3,21.6,13.4,1.2,90,81,57,30.17,29.84,22,5,22,0.00
2015-1-2,23.1,12.7,-1.3,15.4,5.0,-6.5,82,71,58,30.29,30.10,10,1,10,0.00